QPF
0.00 0.01 0.03 0.06 0.15 0.10 0.05 0.03 0.01 0.01 0.02 0.03 0.04 0.04 0.03 0.02 0.02 0.02 0.02 0.02 0.04 0.03 0.02 0.03 0.02 0.02 0.03 0.03 0.02 0.01 0.01 0.01 0.01 0.01 0.01 0.02 0.03 0.03 0.05 0.07 0.02 0.02 0.03
0.00 0.01 0.03 0.04 0.09 0.10 0.07 0.03 0.03 0.02 0.02 0.02 0.03 0.04 0.04 0.03 0.02 0.02 0.02 0.02 0.03 0.03 0.02 0.02 0.03 0.02 0.03 0.03 0.02 0.01 0.01 0.00 0.00 0.00 0.00 0.01 0.02 0.03 0.04 0.04 0.03 0.03 0.03
0.00 0.01 0.01 0.02 0.05 0.09 0.11 0.05 0.03 0.02 0.02 0.02 0.03 0.03 0.04 0.03 0.02 0.02 0.02 0.02 0.03 0.03 0.02 0.02 0.02 0.02 0.02 0.02 0.01 0.01 0.01 0.00 0.00 0.00 0.00 0.00 0.01 0.04 0.04 0.04 0.05 0.04 0.02
0.00 0.00 0.01 0.02 0.03 0.08 0.14 0.13 0.07 0.04 0.02 0.02 0.02 0.02 0.02 0.02 0.02 0.02 0.02 0.02 0.03 0.02 0.02 0.01 0.01 0.02 0.02 0.01 0.01 0.01 0.00 0.00 0.00 0.00 0.00 0.00 0.01 0.04 0.05 0.05 0.05 0.04 0.02
0.00 0.00 0.01 0.01 0.02 0.04 0.08 0.12 0.13 0.09 0.04 0.02 0.02 0.02 0.02 0.01 0.02 0.02 0.01 0.02 0.02 0.03 0.02 0.01 0.01 0.01 0.01 0.01 0.01 0.00 0.00 0.00 0.00 0.00 0.00 0.00 0.01 0.04 0.04 0.04 0.03 0.02 0.02
0.00 0.00 0.01 0.01 0.02 0.02 0.04 0.08 0.12 0.10 0.05 0.03 0.02 0.02 0.02 0.02 0.02 0.02 0.01 0.01 0.02 0.02 0.02 0.02 0.01 0.01 0.01 0.01 0.00 0.00 0.00 0.00 0.00 0.00 0.00 0.00 0.01 0.04 0.04 0.02 0.02 0.02 0.02
0.00 0.00 0.01 0.01 0.02 0.02 0.02 0.04 0.07 0.09 0.09 0.06 0.03 0.02 0.03 0.02 0.02 0.02 0.02 0.01 0.01 0.02 0.02 0.02 0.01 0.01 0.01 0.01 0.00 0.00 0.00 0.00 0.00 0.00 0.00 0.00 0.01 0.04 0.03 0.03 0.04 0.04 0.04
0.00 0.00 0.01 0.02 0.02 0.02 0.02 0.02 0.04 0.06 0.07 0.08 0.07 0.05 0.03 0.03 0.02 0.02 0.01 0.01 0.01 0.01 0.02 0.02 0.02 0.01 0.01 0.00 0.00 0.00 0.00 0.00 0.00 0.00 0.00 0.00 0.02 0.05 0.04 0.05 0.06 0.05 0.05
0.00 0.01 0.01 0.02 0.02 0.04 0.04 0.04 0.05 0.07 0.07 0.08 0.08 0.08 0.05 0.04 0.04 0.03 0.02 0.02 0.02 0.02 0.02 0.02 0.01 0.01 0.01 0.00 0.00 0.00 0.00 0.00 0.00 0.00 0.00 0.01 0.03 0.06 0.05 0.04 0.05 0.05 0.04
0.01 0.01 0.01 0.02 0.02 0.03 0.04 0.06 0.05 0.06 0.06 0.08 0.10 0.12 0.09 0.06 0.04 0.03 0.03 0.02 0.02 0.03 0.02 0.02 0.01 0.01 0.01 0.00 0.00 0.00 0.00 0.00 0.00 0.00 0.00 0.01 0.04 0.05 0.05 0.04 0.04 0.03 0.03
0.01 0.01 0.01 0.02 0.02 0.03 0.03 0.05 0.06 0.06 0.08 0.10 0.11 0.11 0.10 0.08 0.05 0.03 0.02 0.03 0.02 0.03 0.03 0.03 0.01 0.01 0.01 0.00 0.00 0.00 0.00 0.00 0.00 0.00 0.00 0.01 0.04 0.05 0.05 0.04 0.03 0.01 0.01
0.01 0.01 0.01 0.01 0.03 0.04 0.04 0.05 0.06 0.06 0.07 0.09 0.08 0.08 0.08 0.08 0.07 0.04 0.03 0.02 0.02 0.02 0.02 0.02 0.02 0.01 0.01 0.01 0.01 0.01 0.00 0.00 0.00 0.00 0.01 0.01 0.04 0.04 0.05 0.05 0.04 0.02 0.01
0.00 0.01 0.01 0.01 0.03 0.04 0.05 0.06 0.06 0.06 0.07 0.08 0.09 0.09 0.08 0.09 0.08 0.07 0.05 0.04 0.04 0.03 0.02 0.02 0.02 0.02 0.01 0.01 0.02 0.02 0.01 0.00 0.01 0.00 0.01 0.02 0.03 0.04 0.04 0.05 0.05 0.03 0.02
0.01 0.01 0.01 0.01 0.02 0.03 0.05 0.07 0.08 0.08 0.07 0.06 0.08 0.09 0.09 0.08 0.08 0.07 0.06 0.04 0.02 0.02 0.02 0.02 0.02 0.01 0.01 0.01 0.01 0.02 0.02 0.02 0.01 0.00 0.01 0.02 0.02 0.03 0.03 0.04 0.05 0.05 0.05
0.01 0.01 0.01 0.01 0.02 0.02 0.04 0.08 0.10 0.10 0.09 0.08 0.07 0.08 0.08 0.07 0.07 0.06 0.05 0.04 0.02 0.02 0.02 0.02 0.02 0.02 0.02 0.02 0.01 0.01 0.01 0.01 0.01 0.01 0.01 0.02 0.02 0.02 0.03 0.03 0.05 0.08 0.09
0.02 0.02 0.02 0.02 0.02 0.02 0.03 0.04 0.08 0.14 0.14 0.13 0.10 0.09 0.08 0.07 0.06 0.06 0.04 0.03 0.03 0.03 0.03 0.03 0.02 0.03 0.02 0.02 0.02 0.01 0.01 0.01 0.01 0.01 0.01 0.02 0.02 0.02 0.03 0.04 0.06 0.07 0.06
0.02 0.02 0.03 0.02 0.02 0.03 0.03 0.03 0.04 0.07 0.12 0.16 0.14 0.13 0.13 0.11 0.08 0.07 0.06 0.04 0.04 0.04 0.04 0.04 0.02 0.02 0.02 0.03 0.03 0.02 0.01 0.01 0.01 0.01 0.01 0.01 0.02 0.02 0.02 0.04 0.05 0.04 0.05
0.02 0.02 0.03 0.04 0.03 0.03 0.03 0.04 0.03 0.04 0.05 0.09 0.12 0.11 0.13 0.15 0.12 0.09 0.07 0.05 0.05 0.05 0.04 0.03 0.02 0.02 0.02 0.02 0.03 0.03 0.03 0.03 0.02 0.02 0.01 0.01 0.01 0.01 0.02 0.03 0.03 0.04 0.04
0.03 0.03 0.03 0.03 0.04 0.04 0.04 0.05 0.05 0.04 0.05 0.07 0.09 0.11 0.11 0.13 0.15 0.13 0.07 0.05 0.04 0.05 0.05 0.04 0.03 0.02 0.02 0.02 0.02 0.02 0.03 0.04 0.03 0.02 0.02 0.02 0.01 0.01 0.01 0.02 0.02 0.02 0.02
0.03 0.03 0.03 0.03 0.03 0.03 0.04 0.05 0.06 0.07 0.06 0.06 0.06 0.07 0.11 0.12 0.14 0.15 0.10 0.06 0.05 0.05 0.05 0.05 0.04 0.04 0.03 0.03 0.03 0.03 0.03 0.03 0.03 0.03 0.02 0.02 0.01 0.01 0.01 0.01 0.01 0.02 0.02
0.04 0.03 0.03 0.03 0.03 0.03 0.03 0.04 0.05 0.06 0.07 0.07 0.07 0.06 0.08 0.11 0.13 0.16 0.14 0.09 0.06 0.05 0.05 0.06 0.06 0.05 0.04 0.04 0.05 0.04 0.03 0.03 0.03 0.02 0.02 0.01 0.01 0.01 0.01 0.00 0.01 0.01 0.01
0.05 0.04 0.03 0.03 0.03 0.03 0.03 0.03 0.04 0.05 0.07 0.07 0.07 0.09 0.09 0.09 0.12 0.14 0.16 0.14 0.10 0.07 0.06 0.05 0.06 0.07 0.06 0.05 0.05 0.06 0.06 0.04 0.03 0.03 0.02 0.01 0.01 0.01 0.01 0.00 0.00 0.01 0.01
0.03 0.04 0.04 0.04 0.03 0.03 0.03 0.03 0.03 0.04 0.07 0.09 0.07 0.06 0.08 0.08 0.11 0.13 0.13 0.15 0.14 0.11 0.09 0.07 0.05 0.07 0.09 0.08 0.05 0.05 0.05 0.04 0.03 0.03 0.02 0.01 0.01 0.01 0.01 0.01 0.01 0.01 0.01
0.02 0.02 0.03 0.04 0.04 0.03 0.03 0.03 0.03 0.03 0.04 0.06 0.08 0.06 0.05 0.06 0.08 0.10 0.12 0.14 0.14 0.13 0.12 0.10 0.07 0.06 0.07 0.09 0.08 0.04 0.03 0.02 0.01 0.02 0.01 0.01 0.01 0.01 0.01 0.01 0.02 0.02 0.01
0.02 0.02 0.02 0.03 0.04 0.04 0.04 0.03 0.03 0.03 0.03 0.03 0.05 0.08 0.07 0.05 0.06 0.08 0.09 0.11 0.14 0.13 0.13 0.13 0.12 0.08 0.06 0.07 0.08 0.06 0.04 0.02 0.01 0.01 0.01 0.01 0.01 0.01 0.01 0.01 0.01 0.02 0.02
0.01 0.01 0.02 0.03 0.04 0.04 0.04 0.03 0.03 0.04 0.04 0.04 0.04 0.04 0.06 0.06 0.06 0.06 0.08 0.09 0.11 0.12 0.11 0.11 0.13 0.12 0.10 0.07 0.06 0.07 0.07 0.04 0.02 0.01 0.01 0.01 0.01 0.01 0.01 0.01 0.01 0.01 0.02
MSLP
1012.55 1012.46 1012.53 1012.77 1013.14 1013.58 1014.00 1014.37 1014.63 1014.79 1014.89 1014.96 1015.06 1015.24 1015.50 1015.85 1016.23 1016.62 1016.95 1017.22 1017.40 1017.54 1017.66 1017.81 1018.00 1018.24 1018.53 1018.82 1019.08 1019.28 1019.41 1019.47 1019.48 1019.48 1019.50 1019.56 1019.67 1019.81 1019.96 1020.09 1020.20 1020.26 1020.29
1012.18 1012.14 1012.26 1012.56 1012.97 1013.45 1013.93 1014.34 1014.65 1014.86 1015.00 1015.12 1015.27 1015.48 1015.78 1016.15 1016.55 1016.93 1017.26 1017.52 1017.70 1017.83 1017.94 1018.09 1018.28 1018.54 1018.84 1019.14 1019.42 1019.64 1019.78 1019.85 1019.89 1019.90 1019.93 1020.00 1020.10 1020.24 1020.37 1020.50 1020.60 1020.67 1020.72
1011.77 1011.80 1011.98 1012.33 1012.80 1013.33 1013.85 1014.31 1014.68 1014.95 1015.14 1015.31 1015.50 1015.76 1016.08 1016.46 1016.86 1017.24 1017.56 1017.80 1017.96 1018.09 1018.20 1018.35 1018.55 1018.81 1019.11 1019.43 1019.72 1019.96 1020.13 1020.24 1020.31 1020.36 1020.41 1020.49 1020.59 1020.71 1020.83 1020.93 1021.02 1021.09 1021.16
1011.42 1011.53 1011.79 1012.19 1012.71 1013.28 1013.84 1014.34 1014.75 1015.05 1015.28 1015.49 1015.72 1016.00 1016.34 1016.72 1017.12 1017.49 1017.80 1018.03 1018.20 1018.32 1018.45 1018.60 1018.81 1019.08 1019.39 1019.72 1020.02 1020.29 1020.50 1020.65 1020.76 1020.85 1020.93 1021.02 1021.12 1021.22 1021.32 1021.40 1021.47 1021.54 1021.62
1011.23 1011.42 1011.74 1012.21 1012.76 1013.36 1013.94 1014.45 1014.87 1015.19 1015.44 1015.66 1015.90 1016.18 1016.52 1016.90 1017.29 1017.65 1017.96 1018.21 1018.40 1018.55 1018.70 1018.88 1019.11 1019.39 1019.71 1020.04 1020.36 1020.64 1020.88 1021.07 1021.22 1021.35 1021.47 1021.57 1021.68 1021.76 1021.84 1021.89 1021.94 1022.00 1022.08
1011.22 1011.48 1011.87 1012.38 1012.96 1013.56 1014.14 1014.64 1015.04 1015.34 1015.59 1015.80 1016.03 1016.31 1016.63 1017.00 1017.37 1017.74 1018.06 1018.33 1018.56 1018.76 1018.97 1019.19 1019.46 1019.76 1020.09 1020.43 1020.75 1021.04 1021.29 1021.50 1021.69 1021.85 1021.99 1022.12 1022.23 1022.31 1022.36 1022.40 1022.42 1022.47 1022.54
1011.35 1011.68 1012.12 1012.65 1013.24 1013.83 1014.38 1014.85 1015.22 1015.50 1015.72 1015.92 1016.13 1016.39 1016.69 1017.04 1017.40 1017.76 1018.11 1018.42 1018.70 1018.98 1019.25 1019.54 1019.85 1020.19 1020.53 1020.86 1021.17 1021.45 1021.70 1021.92 1022.13 1022.31 1022.48 1022.63 1022.74 1022.83 1022.87 1022.90 1022.92 1022.95 1023.02
1011.54 1011.91 1012.38 1012.92 1013.51 1014.08 1014.59 1015.03 1015.37 1015.63 1015.84 1016.03 1016.23 1016.47 1016.75 1017.07 1017.42 1017.78 1018.14 1018.49 1018.83 1019.18 1019.53 1019.89 1020.26 1020.63 1020.99 1021.32 1021.61 1021.87 1022.10 1022.31 1022.51 1022.71 1022.89 1023.06 1023.20 1023.30 1023.36 1023.39 1023.41 1023.45 1023.52
1011.69 1012.08 1012.55 1013.09 1013.65 1014.19 1014.68 1015.10 1015.43 1015.70 1015.92 1016.13 1016.34 1016.58 1016.85 1017.16 1017.49 1017.83 1018.19 1018.57 1018.95 1019.36 1019.78 1020.21 1020.64 1021.04 1021.42 1021.74 1022.01 1022.25 1022.45 1022.64 1022.83 1023.03 1023.23 1023.41 1023.57 1023.70 1023.79 1023.85 1023.89 1023.95 1024.03
1011.73 1012.10 1012.56 1013.08 1013.61 1014.12 1014.60 1015.02 1015.38 1015.69 1015.97 1016.23 1016.49 1016.76 1017.04 1017.33 1017.64 1017.96 1018.30 1018.67 1019.07 1019.51 1019.97 1020.46 1020.93 1021.38 1021.77 1022.09 1022.36 1022.56 1022.74 1022.91 1023.09 1023.28 1023.48 1023.69 1023.88 1024.04 1024.17 1024.27 1024.35 1024.44 1024.54
1011.65 1011.99 1012.41 1012.88 1013.37 1013.85 1014.32 1014.77 1015.18 1015.58 1015.95 1016.31 1016.66 1016.99 1017.31 1017.60 1017.88 1018.16 1018.46 1018.80 1019.18 1019.62 1020.10 1020.61 1021.12 1021.60 1022.01 1022.35 1022.61 1022.82 1022.98 1023.13 1023.29 1023.48 1023.69 1023.90 1024.12 1024.32 1024.50 1024.64 1024.78 1024.91 1025.05
1011.53 1011.82 1012.16 1012.56 1012.99 1013.43 1013.89 1014.37 1014.86 1015.36 1015.85 1016.35 1016.81 1017.24 1017.60 1017.92 1018.19 1018.43 1018.67 1018.95 1019.29 1019.70 1020.17 1020.69 1021.22 1021.72 1022.16 1022.52 1022.80 1023.01 1023.18 1023.33 1023.48 1023.66 1023.87 1024.10 1024.33 1024.56 1024.77 1024.97 1025.16 1025.34 1025.52
1011.51 1011.70 1011.95 1012.24 1012.57 1012.95 1013.38 1013.88 1014.43 1015.02 1015.65 1016.28 1016.88 1017.41 1017.86 1018.22 1018.49 1018.71 1018.90 1019.13 1019.41 1019.77 1020.21 1020.72 1021.25 1021.77 1022.24 1022.63 1022.94 1023.18 1023.37 1023.53 1023.69 1023.86 1024.06 1024.29 1024.53 1024.77 1025.01 1025.25 1025.48 1025.71 1025.94
1011.72 1011.79 1011.90 1012.05 1012.25 1012.52 1012.89 1013.36 1013.93 1014.60 1015.33 1016.08 1016.80 1017.45 1017.99 1018.41 1018.72 1018.94 1019.11 1019.30 1019.53 1019.85 1020.26 1020.74 1021.26 1021.79 1022.29 1022.72 1023.08 1023.36 1023.57 1023.76 1023.92 1024.10 1024.29 1024.50 1024.73 1024.97 1025.23 1025.48 1025.75 1026.02 1026.29
1012.27 1012.20 1012.13 1012.10 1012.13 1012.26 1012.51 1012.90 1013.44 1014.11 1014.88 1015.71 1016.53 1017.28 1017.92 1018.42 1018.79 1019.06 1019.25 1019.44 1019.66 1019.95 1020.33 1020.79 1021.30 1021.84 1022.36 1022.82 1023.22 1023.55 1023.80 1024.02 1024.20 1024.37 1024.55 1024.74 1024.95 1025.18 1025.42 1025.68 1025.96 1026.26 1026.57
1013.20 1012.96 1012.71 1012.48 1012.31 1012.24 1012.32 1012.57 1013.00 1013.60 1014.34 1015.18 1016.03 1016.85 1017.58 1018.18 1018.65 1019.00 1019.27 1019.51 1019.76 1020.06 1020.44 1020.89 1021.40 1021.93 1022.46 1022.96 1023.39 1023.75 1024.05 1024.29 1024.49 1024.67 1024.83 1025.00 1025.18 1025.38 1025.61 1025.86 1026.15 1026.46 1026.80
1014.45 1014.04 1013.59 1013.16 1012.78 1012.50 1012.37 1012.42 1012.68 1013.14 1013.77 1014.53 1015.37 1016.21 1017.00 1017.69 1018.28 1018.76 1019.14 1019.48 1019.81 1020.16 1020.57 1021.03 1021.53 1022.07 1022.60 1023.10 1023.56 1023.96 1024.28 1024.55 1024.77 1024.95 1025.10 1025.25 1025.41 1025.59 1025.79 1026.04 1026.32 1026.64 1026.99
1015.88 1015.32 1014.70 1014.08 1013.50 1013.02 1012.68 1012.51 1012.54 1012.79 1013.24 1013.87 1014.61 1015.41 1016.23 1017.00 1017.70 1018.32 1018.85 1019.33 1019.77 1020.21 1020.67 1021.16 1021.67 1022.20 1022.73 1023.23 1023.70 1024.11 1024.46 1024.75 1024.98 1025.17 1025.33 1025.47 1025.61 1025.77 1025.97 1026.20 1026.49 1026.81 1027.18
1017.35 1016.65 1015.91 1015.15 1014.43 1013.77 1013.23 1012.84 1012.64 1012.64 1012.86 1013.29 1013.88 1014.59 1015.37 1016.18 1016.97 1017.72 1018.40 1019.03 1019.61 1020.16 1020.69 1021.21 1021.74 1022.27 1022.79 1023.29 1023.76 1024.18 1024.54 1024.85 1025.10 1025.30 1025.47 1025.62 1025.77 1025.93 1026.13 1026.37 1026.66 1027.00 1027.37
1018.70 1017.93 1017.12 1016.29 1015.47 1014.70 1014.01 1013.43 1013.00 1012.76 1012.72 1012.91 1013.29 1013.86 1014.56 1015.35 1016.18 1017.02 1017.83 1018.58 1019.29 1019.94 1020.55 1021.12 1021.68 1022.21 1022.73 1023.23 1023.69 1024.12 1024.50 1024.83 1025.10 1025.33 1025.52 1025.69 1025.85 1026.04 1026.25 1026.52 1026.82 1027.18 1027.56
1019.85 1019.07 1018.25 1017.42 1016.58 1015.76 1014.98 1014.26 1013.64 1013.17 1012.89 1012.82 1012.98 1013.34 1013.90 1014.61 1015.42 1016.28 1017.16 1018.00 1018.80 1019.53 1020.21 1020.84 1021.42 1021.97 1022.50 1023.01 1023.48 1023.92 1024.32 1024.68 1024.98 1025.24 1025.46 1025.66 1025.86 1026.08 1026.33 1026.62 1026.96 1027.33 1027.73
1020.79 1020.04 1019.28 1018.50 1017.71 1016.91 1016.09 1015.30 1014.55 1013.90 1013.39 1013.08 1012.99 1013.13 1013.50 1014.06 1014.77 1015.58 1016.45 1017.31 1018.14 1018.93 1019.65 1020.32 1020.94 1021.52 1022.08 1022.61 1023.12 1023.59 1024.02 1024.41 1024.74 1025.04 1025.29 1025.53 1025.77 1026.03 1026.32 1026.65 1027.02 1027.43 1027.85
1021.55 1020.88 1020.21 1019.53 1018.83 1018.09 1017.31 1016.49 1015.67 1014.89 1014.21 1013.68 1013.36 1013.26 1013.40 1013.76 1014.30 1014.98 1015.76 1016.56 1017.37 1018.15 1018.88 1019.58 1020.24 1020.86 1021.47 1022.05 1022.60 1023.12 1023.60 1024.03 1024.41 1024.73 1025.03 1025.30 1025.58 1025.88 1026.21 1026.58 1026.99 1027.42 1027.86
1022.20 1021.63 1021.07 1020.51 1019.91 1019.26 1018.54 1017.75 1016.91 1016.06 1015.26 1014.57 1014.04 1013.72 1013.61 1013.73 1014.05 1014.54 1015.14 1015.82 1016.53 1017.25 1017.96 1018.66 1019.35 1020.03 1020.69 1021.34 1021.96 1022.55 1023.08 1023.56 1023.98 1024.35 1024.67 1024.98 1025.28 1025.61 1025.97 1026.38 1026.81 1027.28 1027.74
1022.83 1022.35 1021.88 1021.42 1020.92 1020.36 1019.72 1018.98 1018.17 1017.30 1016.44 1015.63 1014.94 1014.42 1014.09 1013.96 1014.03 1014.27 1014.65 1015.14 1015.70 1016.32 1016.97 1017.65 1018.36 1019.08 1019.81 1020.53 1021.23 1021.89 1022.49 1023.02 1023.48 1023.88 1024.23 1024.56 1024.88 1025.23 1025.62 1026.04 1026.50 1026.99 1027.48
1023.47 1023.04 1022.64 1022.24 1021.81 1021.33 1020.76 1020.09 1019.33 1018.49 1017.62 1016.76 1015.96 1015.29 1014.76 1014.40 1014.22 1014.20 1014.33 1014.59 1014.97 1015.44 1016.00 1016.63 1017.33 1018.08 1018.86 1019.66 1020.43 1021.16 1021.83 1022.41 1022.91 1023.33 1023.71 1024.05 1024.39 1024.75 1025.15 1025.59 1026.07 1026.57 1027.07
Thickness
5693 5695 5697 5698 5700 5700 5700 5701 5702 5702 5703 5703 5703 5704 5704 5704 5703 5703 5703 5704 5704 5704 5705 5705 5705 5705 5705 5706 5705 5705 5705 5705 5705 5705 5705 5705 5705 5705 5704 5704 5704 5703 5704
5690 5692 5693 5694 5695 5696 5696 5696 5697 5698 5699 5699 5699 5699 5700 5700 5700 5700 5700 5700 5700 5700 5701 5701 5701 5701 5701 5701 5701 5701 5701 5701 5701 5701 5701 5701 5701 5701 5701 5700 5700 5700 5699
5687 5688 5688 5689 5690 5691 5692 5692 5692 5693 5694 5695 5695 5695 5695 5696 5696 5695 5695 5695 5696 5696 5696 5696 5696 5696 5696 5696 5696 5697 5697 5697 5696 5697 5697 5697 5697 5697 5697 5696 5696 5695 5695
5682 5683 5683 5684 5685 5686 5687 5687 5687 5688 5689 5690 5690 5690 5691 5691 5691 5691 5691 5691 5691 5691 5691 5691 5691 5691 5692 5692 5692 5692 5692 5692 5692 5692 5692 5693 5693 5693 5693 5692 5692 5691 5691
5676 5677 5678 5679 5679 5680 5681 5682 5682 5682 5683 5683 5684 5685 5685 5686 5686 5686 5686 5686 5686 5686 5686 5686 5686 5686 5686 5686 5687 5687 5687 5687 5687 5688 5688 5688 5689 5689 5688 5688 5687 5687 5686
5670 5670 5672 5673 5673 5674 5675 5676 5676 5677 5677 5677 5678 5679 5679 5680 5680 5681 5680 5681 5681 5681 5681 5681 5681 5681 5681 5681 5681 5682 5682 5682 5682 5683 5683 5684 5684 5684 5684 5683 5683 5682 5682
5663 5664 5665 5666 5667 5667 5668 5669 5670 5671 5671 5671 5672 5672 5673 5674 5674 5675 5675 5675 5675 5675 5676 5675 5676 5676 5676 5676 5676 5676 5677 5677 5677 5678 5678 5679 5679 5680 5679 5678 5678 5678 5677
5654 5656 5657 5658 5659 5660 5661 5661 5663 5664 5665 5666 5666 5667 5667 5667 5668 5668 5669 5669 5669 5670 5670 5670 5670 5670 5670 5670 5670 5671 5671 5672 5672 5672 5673 5673 5674 5675 5674 5674 5673 5673 5672
5644 5646 5648 5650 5651 5652 5653 5654 5655 5657 5658 5659 5660 5660 5660 5661 5661 5661 5662 5663 5663 5663 5664 5664 5664 5664 5664 5664 5664 5665 5665 5666 5666 5666 5667 5668 5668 5669 5669 5669 5668 5667 5667
5634 5636 5639 5641 5642 5644 5645 5647 5648 5649 5650 5652 5652 5653 5653 5653 5654 5654 5655 5656 5656 5657 5657 5658 5657 5658 5658 5658 5658 5659 5659 5660 5660 5661 5661 5662 5663 5663 5663 5663 5663 5662 5661
5624 5626 5629 5631 5633 5635 5637 5638 5639 5641 5642 5643 5644 5645 5646 5646 5646 5647 5648 5648 5649 5650 5650 5651 5651 5651 5651 5651 5652 5652 5653 5653 5654 5654 5655 5656 5657 5658 5658 5657 5657 5657 5656
5612 5615 5618 5620 5623 5626 5627 5629 5630 5632 5633 5634 5636 5637 5638 5639 5639 5639 5640 5641 5641 5642 5642 5643 5643 5643 5643 5644 5644 5645 5646 5646 5647 5648 5649 5650 5651 5651 5651 5651 5651 5651 5650
5601 5604 5607 5610 5613 5616 5617 5619 5621 5622 5624 5625 5627 5628 5630 5630 5631 5632 5632 5632 5633 5633 5634 5634 5635 5635 5636 5637 5638 5638 5639 5639 5640 5641 5642 5643 5644 5645 5645 5645 5645 5645 5645
5590 5593 5596 5599 5603 5605 5607 5609 5611 5613 5614 5615 5617 5619 5621 5621 5622 5622 5623 5624 5624 5625 5625 5626 5627 5627 5628 5629 5630 5631 5631 5632 5632 5634 5635 5636 5637 5638 5639 5639 5639 5639 5639
5578 5581 5584 5589 5592 5595 5597 5599 5601 5603 5604 5605 5607 5609 5611 5612 5613 5613 5613 5614 5615 5616 5617 5618 5619 5619 5620 5621 5622 5623 5624 5624 5625 5626 5627 5628 5630 5631 5631 5632 5632 5632 5632
5566 5570 5573 5577 5582 5585 5587 5589 5591 5593 5594 5595 5597 5599 5601 5602 5603 5604 5604 5605 5606 5607 5608 5609 5610 5611 5611 5612 5613 5614 5615 5616 5616 5617 5618 5620 5621 5622 5624 5625 5625 5625 5625
5554 5558 5562 5566 5570 5574 5577 5579 5581 5583 5584 5585 5586 5589 5590 5592 5593 5594 5595 5595 5596 5598 5599 5600 5600 5602 5603 5603 5604 5605 5606 5607 5607 5608 5609 5611 5612 5613 5615 5616 5617 5617 5618
5542 5546 5550 5554 5558 5562 5566 5568 5571 5572 5574 5575 5576 5578 5579 5581 5583 5584 5585 5586 5587 5588 5590 5590 5591 5592 5593 5593 5594 5595 5596 5597 5598 5599 5600 5601 5603 5604 5605 5606 5608 5609 5609
5530 5535 5539 5543 5547 5550 5554 5557 5560 5561 5562 5564 5565 5567 5569 5571 5574 5575 5576 5577 5578 5578 5580 5581 5581 5582 5583 5583 5583 5584 5586 5587 5588 5589 5590 5591 5593 5594 5595 5596 5598 5599 5600
5519 5523 5528 5532 5535 5538 5542 5545 5548 5549 5551 5553 5555 5557 5559 5561 5564 5565 5567 5567 5568 5568 5569 5571 5571 5572 5573 5574 5574 5573 5574 5576 5578 5579 5580 5581 5583 5584 5585 5586 5588 5588 5589
5508 5512 5516 5520 5524 5526 5529 5532 5536 5537 5539 5542 5544 5546 5548 5550 5553 5555 5557 5558 5558 5559 5559 5560 5561 5561 5562 5563 5563 5562 5563 5565 5566 5567 5569 5571 5572 5573 5575 5576 5577 5578 5578
5496 5500 5505 5508 5511 5514 5518 5521 5523 5525 5527 5530 5533 5534 5536 5539 5541 5544 5546 5547 5548 5548 5548 5550 5551 5551 5551 5553 5555 5555 5553 5553 5554 5556 5558 5560 5561 5563 5564 5565 5566 5567 5568
5482 5487 5492 5495 5499 5502 5505 5508 5510 5513 5515 5517 5520 5522 5525 5527 5529 5531 5533 5535 5537 5538 5539 5539 5540 5542 5542 5542 5546 5548 5548 5547 5543 5543 5545 5547 5550 5551 5553 5555 5556 5557 5557
5469 5473 5478 5482 5486 5489 5493 5496 5498 5501 5504 5506 5508 5511 5512 5514 5517 5519 5521 5523 5525 5527 5528 5528 5530 5532 5534 5533 5533 5536 5539 5540 5537 5533 5533 5535 5537 5539 5541 5544 5545 5546 5547
5455 5460 5465 5469 5473 5477 5481 5484 5486 5489 5491 5493 5495 5497 5499 5501 5503 5506 5508 5510 5512 5514 5516 5516 5518 5520 5523 5525 5524 5525 5526 5527 5529 5529 5526 5525 5525 5527 5530 5532 5534 5535 5536
5441 5446 5450 5454 5459 5463 5467 5470 5474 5476 5477 5479 5482 5484 5486 5488 5490 5493 5495 5497 5499 5501 5503 5505 5507 5509 5512 5514 5515 5516 5517 5519 5519 5519 5518 5516 5515 5516 5518 5520 5522 5524 5525